METEOR M2-3 DEB, 60448

Orbit data source: Space-Track

METEOR M2-3 DEB, 60448 is space debris in SSO originally from a Commonwealth of Independent States-origin launch on Tue, 27 Jun 2023 UTC launched from the Vostochny Cosmodrome (VOSTO). Debris objects in space refer to the collection of defunct objects orbiting the Earth. Examples of debris include non-operational satellites, rocket bodies, and fragments generated from explosions, collisions, or faulty payload assembly.

Loading next visibility...
Identifier
60448, 2023-091BC
Orbit
SSO
Country
Flag of CISCIS
Related business
Manufacturer
VNIIEM
Mission
Spacecraft
Bus & Motor
RESURS-O, Unknown motor
Mass
Unknown
Launch date (UTC)
2023-06-27 (3 years ago)
Launch vehicle
Unknown
Launch site
Vostochny Cosmodrome (VOSTO)
Object type
Payload
Rocket body
Debris
Shape & HBR
Unknown shape, 0.1 m
Radar Cross Section
Small (<0.1 m²)

Expand to show TLE details & history
Last TLE update: 10 hours ago

TLE from 10 hours ago
0 METEOR M2-3 DEB
1 60448U 23091BC  26162.69997814  .00000246  00000-0  12370-3 0  9995
2 60448  98.6114 218.6811 0004271 165.8448 194.2852 14.25040528118046
Epoch: 2026-06-11T16:47Z
TLE epoch observation values (Epoch: 2026-06-11T16:47:58.111Z)
Latitude
-0.00001°
Longitude
66.64896°
Altitude
814.256 km
Speed
7.445 km/s
True Right ascension
14h 34m 43s
True Declination
0° 00' 00"
Sunlit
Object was in full shadow at epoch
Visualization orbit readout
Latitude
Unknown
Longitude
Unknown
Altitude
Unknown
Speed
Unknown
Apparent Right ascension
Unknown
Apparent Declination
Unknown
Sunlit
N/A
Visualization observer readout
Local Sidereal Time
12:54:33
Azimuth
Unknown
Elevation
Unknown
Doppler factor
Unknown
Orbital elements
Apogee altitude
808.572 km
Perigee altitude
802.435 km
Semi-major axis
7,183.641 km
Eccentricity
0.00043
Inclination
98.6114°
RAAN
218.6811°
Arg. of periapsis
165.8448°
True anomaly
194.27313°
Mean anomaly
194.2852°
Eccentric anomaly
194.27916°
Mean motion
3.56473 °/min
Orbital period
100.99 mins
BSTAR
0.0001237
Loading maneuver chart data...
Computing Atmospheric mass density...
Loading historical data...
Loading historical data...
Loading historical data...
Loading historical data...
Loading historical data...
Loading historical data...
Loading historical data...

Documentation

Showing up to 5 results
|